Flag for Germany Weather past 2 weeks in Eckernförde, Schleswig-Holstein, Germany

Now
46 °F

Overcast.


Feels Like: 42 °F
Forecast: 38 / 47 °F
Wind: 7 mph from West

Location: Schleswig

Current Time: Mar 6, 2015 at 12:14:22 PM

Latest Report: Mar 6, 2015 at 12:00 PM


Visibility: 9 mi

Pressure: 30.45 "Hg

Humidity: 85%

Dew point: 42 °F

Location of EckernfördeLocation

Historic Weather in Eckernförde — Graph

°F

Eckernförde temperature yesterday

Maximum temperature yesterday: 45 °F (at 4:00 PM)
Minimum temperature yesterday: 33 °F (at 2:00 AM)
Average temperature yesterday: 39 °F

Past Weeks' High & Low Weather Summary

 TemperatureHumidityPressure
High46 °F (Mar 1, 2:00 PM)100% (Feb 20, 9:00 AM)30.51 "Hg (Feb 20, 9:00 AM)
Low32 °F (Mar 3, 8:00 PM)64% (Feb 28, 4:00 PM)29.21 "Hg (Feb 21, 12:00 PM)
Average38 °F90%29.77 "Hg
* Reported Feb 19 11:00 AM — Mar 6 11:00 AM, Eckernförde, Weather by CustomWeather, © 2015

Note: Actual official high and low records may vary slightly from our data, if they occured in-between our weather recording intervals... More about our weather records

Advertising

Eckernförde weather history for previous 24 hours

 ConditionsComfort  
Time TempWeatherWind HumidityBarometerVisibility
11:00 AM
Fri, Mar 6
45 °FOvercast.6 mph87%30.45 "Hg9 mi
10:00 AM44 °FOvercast.5 mph89%30.45 "Hg9 mi
9:00 AM43 °FLow clouds.5 mph92%30.44 "Hg8 mi
8:00 AM41 °FOvercast.5 mph95%30.43 "Hg7 mi
7:00 AM41 °FLight rain. Low clouds.3 mph96%30.44 "Hg7 mi
6:00 AM41 °FLow clouds.3 mph97%30.45 "Hg5 mi
5:00 AM40 °FLight rain. Low clouds.5 mph98%30.44 "Hg3 mi
3:00 AM40 °FLight rain. Low clouds.5 mph98%30.46 "Hg3 mi
2:00 AM40 °FLow clouds.3 mph97%30.47 "Hg4 mi
1:00 AM40 °FLow clouds.5 mph96%30.47 "Hg4 mi
12:00 AM40 °FLow clouds.5 mph96%30.49 "Hg4 mi
9:00 PM
Thu, Mar 5
40 °FLow clouds.3 mph95%30.50 "Hg6 mi
8:00 PM40 °FLow clouds.5 mph95%30.51 "Hg9 mi
7:00 PM41 °FLow clouds.3 mph93%30.51 "Hg12 mi
6:00 PM42 °FOvercast.3 mph91%30.51 "Hg14 mi
5:00 PM43 °FOvercast.5 mph86%30.51 "Hg19 mi
4:00 PM45 °FOvercast.5 mph73%30.51 "Hg19 mi
3:00 PM45 °FOvercast.6 mph74%30.50 "Hg22 mi
2:00 PM44 °FOvercast.6 mph77%30.50 "Hg19 mi
1:00 PM44 °FOvercast.7 mph83%30.50 "Hg19 mi
12:00 PM43 °FOvercast.6 mph86%30.50 "Hg16 mi
Weather by CustomWeather, © 2015

See weather overviewHow to use our weather pages